This is the latest recevied weather packets stored in our database for station/object N0OQA. If no packets are shown the sender has not sent any weather packets the latest 10 day(s).
| Time | Temp. | Humidity | Pressure | Rain* | Wind** | Luminosity | Snow |
|---|---|---|---|---|---|---|---|
| 1788625198 | 21.11° C | 97% | 1020.7 hPa | 0 mm | - | - | - |
| 1788624297 | 20.56° C | 99% | 1020.9 hPa | 0 mm | - | - | - |
| 1788623396 | 20° C | 100% | 1020.7 hPa | 0 mm | - | - | - |
| 1788623095 | 20° C | 100% | 1020.9 hPa | 0 mm | - | - | - |
| 1788622794 | 19.44° C | 100% | 1021 hPa | 0 mm | - | - | - |
| 1788622494 | 19.44° C | 100% | 1021.1 hPa | 0 mm | - | - | - |
| 1788622191 | 19.44° C | 100% | 1021.1 hPa | 0 mm | - | - | - |
| 1788621591 | 19.44° C | 100% | 1020.9 hPa | 0 mm | - | - | - |
| 1788620388 | 18.89° C | 100% | 1020.1 hPa | 0 mm | - | - | - |
| 1788620088 | 18.89° C | 100% | 1020.1 hPa | 0 mm | - | - | - |
| 1788619487 | 18.89° C | 100% | 1020.1 hPa | 0 mm | - | - | - |
| 1788617385 | 18.33° C | 100% | 1020.4 hPa | 0 mm | - | - | - |
| 1788617084 | 18.33° C | 100% | 1020.5 hPa | 0 mm | - | - | - |
| 1788616784 | 18.33° C | 100% | 1020.4 hPa | 0 mm | - | - | - |
| 1788616184 | 17.78° C | 100% | 1020.5 hPa | 0 mm | - | - | - |
| 1788615883 | 18.33° C | 100% | 1020.6 hPa | 0 mm | - | - | - |
| 1788615583 | 17.78° C | 100% | 1020.5 hPa | 0 mm | - | - | - |
| 1788615283 | 17.78° C | 100% | 1020.4 hPa | 0 mm | - | - | - |
| 1788614081 | 17.78° C | 100% | 1019.9 hPa | 0 mm | - | - | - |
| 1788612880 | 17.78° C | 100% | 1019.3 hPa | 0 mm | - | - | - |
| 1788612580 | 17.78° C | 100% | 1019.2 hPa | 0 mm | - | - | - |
| 1788611679 | 17.78° C | 100% | 1019.1 hPa | 0 mm | - | - | - |
| 1788611379 | 17.78° C | 100% | 1018.9 hPa | 0 mm | - | - | - |
| 1788611082 | 17.78° C | 100% | 1019.2 hPa | 0 mm | - | - | - |
| 1788610778 | 17.22° C | 100% | 1019.1 hPa | 0 mm | - | - | - |
* Rain since midnight (hover to see other rain measurements)
** Current wind speed in m/s (hover to see current wind gust speed)